Change the Weather History Date:

Tuesday, August 13, 2013

  Actual Average (KSNY) Record (KSNY)
Temperature  
Mean Temperature 66 °F 74 °F  
Max Temperature 82 °F 89 °F 102 °F (2007)
Min Temperature 51 °F 59 °F 42 °F (2004)
Degree Days  
Heating Degree Days 0 0  
Month to date heating degree days 0  
Since 1 June heating degree days 62  
Since 1 July heating degree days 3  
Cooling Degree Days 2 9  
Month to date cooling degree days 127  
Year to date cooling degree days 605  
Since 1 June cooling degree days 583  
Growing Degree Days 16 (Base 50)    
Moisture  
Dew Point 51 °F    
Average Humidity 67    
Maximum Humidity 93    
Minimum Humidity 27    
Precipitation  
Precipitation 0.28 in 0.07 in 1.03 in (2005)
Month to date precipitation 1.06  
Year to date precipitation 13.96  
Sea Level Pressure  
Sea Level Pressure 30.22 in    
Wind  
Wind Speed 7 mph (SSW)    
Max Wind Speed 21 mph    
Max Gust Speed 26 mph    
Visibility 10 miles    
Events Rain , Thunderstorm    
T = Trace of Precipitation, MM = Missing Value Source: NWS Daily Summary

Daily Weather History Graph

Daily Weather History Graph

Search for Another Location

Airport or City:

Trip Planner

Search our weather history database for the weather conditions in past years. The results will help you decide how hot, cold, wet, or windy it might be!

Date:

Astronomy

Aug. 13, 2013 Rise Set
Actual Time 7:02 AM CDT 8:55 PM CDT
Civil Twilight 6:32 AM CDT 9:25 PM CDT
Nautical Twilight 5:56 AM CDT 10:01 PM CDT
Astronomical Twilight 5:16 AM CDT 10:40 PM CDT
Moon 2:04 PM CDT (8/13) No Moon Set
Length of Visible Light 14h 52m
Length of Day
13h 53m
Waxing Crescent, 42% of the Moon is Illuminated
Aug 13
Waxing Crescent
Aug 14
First Quarter
Aug 20
Full
Aug 28
Last Quarter
Sep 5
New

Hourly Weather History & Observations

Time (CDT) Temp. Dew Point Humidity Pressure Visibility Wind Dir Wind Speed Gust Speed Precip Events Conditions
12:15 AM 59.0 °F 54.0 °F 83% 30.21 in 10.0 mi NW 8.1 mph - N/A   Clear
12:35 AM 58.6 °F 53.1 °F 82% 30.21 in 10.0 mi NW 9.2 mph - N/A   Clear
12:55 AM 58.6 °F 52.7 °F 81% 30.22 in 10.0 mi WNW 6.9 mph - N/A   Clear
1:15 AM 57.2 °F 52.5 °F 84% 30.22 in 10.0 mi NW 5.8 mph - N/A   Clear
1:35 AM 56.1 °F 52.0 °F 86% 30.20 in 10.0 mi West 3.5 mph - N/A   Clear
1:55 AM 55.8 °F 52.0 °F 87% 30.20 in 10.0 mi West 5.8 mph - N/A   Clear
2:15 AM 54.9 °F 52.0 °F 90% 30.20 in 10.0 mi SSW 3.5 mph - N/A   Clear
2:35 AM 55.6 °F 51.8 °F 87% 30.20 in 10.0 mi SSW 5.8 mph - N/A   Clear
2:55 AM 54.9 °F 51.4 °F 88% 30.20 in 10.0 mi South 6.9 mph - N/A   Clear
3:15 AM 54.7 °F 50.9 °F 87% 30.19 in 10.0 mi SSW 6.9 mph - N/A   Clear
3:35 AM 54.3 °F 50.4 °F 86% 30.19 in 10.0 mi SSW 6.9 mph - N/A   Clear
3:55 AM 54.5 °F 50.5 °F 86% 30.19 in 10.0 mi WSW 4.6 mph - N/A   Clear
4:15 AM 54.0 °F 50.4 °F 88% 30.19 in 10.0 mi SW 3.5 mph - N/A   Clear
4:35 AM 53.6 °F 50.2 °F 88% 30.19 in 10.0 mi West 3.5 mph - N/A   Clear
4:55 AM 53.8 °F 50.2 °F 88% 30.19 in 10.0 mi West 3.5 mph - N/A   Clear
5:15 AM 53.6 °F 50.2 °F 88% 30.19 in 10.0 mi Calm Calm - N/A   Clear
5:35 AM 53.8 °F 49.8 °F 86% 30.19 in 10.0 mi Calm Calm - N/A   Clear
5:55 AM 54.1 °F 50.0 °F 86% 30.19 in 10.0 mi Calm Calm - N/A   Clear
6:15 AM 52.7 °F 49.6 °F 89% 30.19 in 10.0 mi NW 3.5 mph - N/A   Clear
6:35 AM 53.1 °F 49.6 °F 88% 30.19 in 10.0 mi West 4.6 mph - N/A   Clear
6:55 AM 51.8 °F 49.6 °F 92% 30.20 in 10.0 mi WSW 5.8 mph - N/A   Clear
7:15 AM 51.3 °F 49.3 °F 93% 30.21 in 10.0 mi South 3.5 mph - N/A   Clear
7:35 AM 52.2 °F 50.0 °F 92% 30.21 in 10.0 mi SW 3.5 mph - N/A   Clear
7:55 AM 53.6 °F 50.9 °F 91% 30.22 in 10.0 mi Calm Calm - N/A   Clear
8:15 AM 55.4 °F 51.8 °F 88% 30.22 in 10.0 mi Calm Calm - N/A   Clear
8:55 AM 60.3 °F 52.7 °F 76% 30.23 in 10.0 mi SSW 4.6 mph - N/A   Clear
9:15 AM 62.6 °F 54.0 °F 73% 30.25 in 10.0 mi Calm Calm - N/A   Clear
9:35 AM 64.9 °F 53.4 °F 66% 30.25 in 10.0 mi Calm Calm - N/A   Clear
9:55 AM 66.4 °F 53.2 °F 63% 30.25 in 10.0 mi SSE 5.8 mph - N/A   Clear
10:15 AM 68.4 °F 54.5 °F 61% 30.25 in 10.0 mi SE 5.8 mph - N/A   Clear
10:35 AM 69.8 °F 53.8 °F 57% 30.25 in 10.0 mi South 9.2 mph - N/A   Clear
10:55 AM 70.9 °F 53.4 °F 54% 30.25 in 10.0 mi SSE 8.1 mph - N/A   Clear
11:15 AM 72.1 °F 53.1 °F 51% 30.25 in 10.0 mi South 8.1 mph - N/A   Clear
11:35 AM 73.9 °F 52.9 °F 48% 30.26 in 10.0 mi South 6.9 mph - N/A   Clear
11:55 AM 74.7 °F 51.6 °F 44% 30.26 in 10.0 mi SSE 9.2 mph - N/A   Clear
12:15 PM 75.0 °F 51.6 °F 44% 30.25 in 10.0 mi SSE 8.1 mph - N/A   Clear
12:35 PM 76.3 °F 48.2 °F 37% 30.25 in 10.0 mi SSW 9.2 mph - N/A   Clear
12:55 PM 77.0 °F 49.3 °F 38% 30.25 in 10.0 mi South 10.4 mph - N/A   Clear
1:15 PM 77.5 °F 50.4 °F 38% 30.25 in 10.0 mi SSE 10.4 mph - N/A   Clear
1:35 PM 78.1 °F 49.8 °F 37% 30.24 in 10.0 mi SSW 11.5 mph - N/A   Clear
1:55 PM 78.8 °F 47.7 °F 33% 30.23 in 10.0 mi SSW 10.4 mph 17.3 mph N/A   Clear
2:15 PM 79.0 °F 46.9 °F 32% 30.23 in 10.0 mi SW 6.9 mph - N/A   Clear
2:35 PM 79.3 °F 46.2 °F 31% 30.22 in 10.0 mi WSW 10.4 mph - N/A   Scattered Clouds
2:55 PM 79.9 °F 46.9 °F 31% 30.22 in 10.0 mi WSW 9.2 mph 16.1 mph N/A   Clear
3:15 PM 79.9 °F 46.0 °F 30% 30.21 in 10.0 mi West 4.6 mph - N/A   Clear
3:35 PM 81.1 °F 45.3 °F 28% 30.21 in 10.0 mi SW 10.4 mph 16.1 mph N/A   Scattered Clouds
3:55 PM 81.3 °F 44.4 °F 27% 30.20 in 10.0 mi SSW 6.9 mph - N/A   Clear
4:15 PM 82.4 °F 45.1 °F 27% 30.19 in 10.0 mi SW 8.1 mph - N/A Thunderstorm Clear
4:35 PM 81.3 °F 44.8 °F 28% 30.17 in 10.0 mi South 6.9 mph - N/A Thunderstorm Clear
4:55 PM 81.7 °F 46.9 °F 30% 30.17 in 10.0 mi SSE 9.2 mph - N/A   Scattered Clouds
5:15 PM 81.7 °F 48.4 °F 31% 30.17 in 10.0 mi South 9.2 mph - N/A Thunderstorm Scattered Clouds
5:35 PM 80.6 °F 49.3 °F 33% 30.17 in 10.0 mi SE 9.2 mph - N/A Thunderstorm Thunderstorm
5:55 PM 75.2 °F 51.6 °F 44% 30.17 in 10.0 mi SSE 18.4 mph 21.9 mph N/A   Scattered Clouds
6:55 PM 63.7 °F 55.9 °F 76% 30.21 in 10.0 mi North 10.4 mph - 0.03 in Rain , Thunderstorm Thunderstorms and Rain
7:15 PM 62.1 °F 56.5 °F 82% 30.23 in 10.0 mi North 16.1 mph 20.7 mph 0.02 in Rain , Thunderstorm Thunderstorms and Rain
7:35 PM 61.7 °F 55.4 °F 80% 30.24 in 4.0 mi NE 10.4 mph - 0.13 in Rain , Thunderstorm Heavy Thunderstorms and Rain
7:55 PM 61.0 °F 56.5 °F 85% 30.25 in 5.0 mi SE 9.2 mph - 0.23 in Rain , Thunderstorm Heavy Thunderstorms and Rain
8:15 PM 60.8 °F 54.5 °F 80% 30.24 in 10.0 mi SE 17.3 mph 23.0 mph 0.01 in Rain , Thunderstorm Light Thunderstorms and Rain
8:35 PM 60.8 °F 54.5 °F 80% 30.24 in 10.0 mi SE 13.8 mph - 0.01 in Thunderstorm Unknown
8:55 PM 61.7 °F 54.3 °F 77% 30.23 in 10.0 mi SSE 13.8 mph - 0.01 in Rain Rain
9:15 PM 61.7 °F 53.4 °F 74% 30.21 in 10.0 mi SE 20.7 mph 26.5 mph N/A Thunderstorm Unknown
9:35 PM 60.4 °F 53.8 °F 79% 30.20 in 10.0 mi SE 10.4 mph - 0.01 in Rain Light Rain
9:55 PM 60.8 °F 52.9 °F 75% 30.19 in 10.0 mi SE 9.2 mph - 0.01 in   Clear
10:15 PM 59.9 °F 53.1 °F 78% 30.19 in 10.0 mi SE 8.1 mph - N/A   Clear
10:35 PM 60.8 °F 52.2 °F 73% 30.20 in 10.0 mi SE 8.1 mph - N/A Thunderstorm Clear
10:55 PM 59.9 °F 52.3 °F 76% 30.22 in 10.0 mi South 11.5 mph - N/A   Clear
11:15 PM 60.1 °F 54.5 °F 82% 30.23 in 10.0 mi SSE 16.1 mph 21.9 mph N/A   Clear
11:35 PM 59.2 °F 55.4 °F 87% 30.23 in 10.0 mi SSE 12.7 mph - N/A   Clear
11:55 PM 59.4 °F 55.9 °F 88% 30.23 in 10.0 mi South 11.5 mph - N/A Thunderstorm Thunderstorm